Helicity
201 204 207 210 207 199 192 188 188 146 153 141 150 131 133 130 152 140 140 160 152 148 138 128 121 120 129 131 127 123 126 129 136 147 157 166 170 163
193 194 201 200 199 196 191 189 195 198 164 159 149 118 120 122 130 123 120 108 120 129 119 113 109 107 102 115 111 116 123 130 153 182 187 175 173 177
172 172 179 167 169 176 177 179 188 190 161 155 137 121 114 119 110 106 99 98 96 122 132 124 119 120 109 112 134 132 135 133 136 142 157 165 167 162
153 149 152 146 159 160 164 175 175 183 161 139 141 130 130 119 117 115 114 106 110 114 135 129 126 124 133 134 143 138 116 97 124 146 151 137 136 145
141 140 138 137 148 151 155 157 159 157 157 135 128 123 121 111 117 96 100 92 88 98 101 97 118 122 144 147 143 160 140 118 100 110 124 131 132 131
169 172 172 173 166 158 153 152 146 147 145 133 121 109 104 102 100 110 95 81 99 78 72 86 90 94 99 107 109 110 109 103 103 112 122 125 122 122
137 137 136 136 126 122 119 118 112 114 119 123 120 110 97 86 87 94 96 99 88 87 80 61 68 73 70 68 72 78 82 94 95 92 95 109 112 118
110 110 101 91 95 99 96 76 65 82 89 92 94 95 96 84 84 84 82 86 100 62 77 81 76 76 79 70 83 78 84 85 92 99 103 103 101 101
103 97 92 82 75 81 77 77 74 72 59 74 78 77 81 69 75 72 68 70 71 82 71 82 80 78 79 77 69 70 73 80 87 90 94 94 96 104
90 86 85 86 86 87 84 82 81 72 68 73 66 65 68 77 77 75 79 83 84 73 63 71 72 73 96 88 66 72 89 93 94 96 110 119 110 104
91 84 84 86 87 76 76 80 83 78 74 64 58 54 50 43 53 83 80 76 78 81 79 70 63 80 92 86 85 90 89 85 75 81 84 80 86 95
78 77 68 71 75 69 71 73 77 80 89 86 86 76 70 78 73 88 105 118 115 108 80 73 75 80 86 82 86 87 82 78 73 66 62 67 73 80
84 84 80 74 77 73 64 73 58 49 64 88 86 92 97 96 98 96 99 116 124 126 94 106 112 96 105 88 72 74 75 75 70 72 68 66 65 68
72 77 76 71 67 60 62 62 58 55 82 75 68 76 76 81 84 92 97 121 134 110 94 92 150 114 110 106 90 68 73 64 63 64 64 65 65 57
72 63 47 48 62 79 79 74 75 91 102 110 118 133 122 100 95 103 102 95 107 116 127 95 143 149 136 126 107 92 74 79 71 71 68 60 64 65
52 57 61 72 62 70 80 86 100 109 111 118 117 122 130 136 133 127 135 129 138 140 113 109 113 130 148 129 113 96 74 88 78 78 64 64 58 52
63 79 92 106 106 109 116 119 127 136 139 133 137 143 147 150 150 135 136 137 157 162 149 127 119 124 151 133 136 105 93 91 83 70 64 62 52 47
126 131 127 125 126 127 127 126 131 130 138 151 163 165 160 152 151 148 142 147 153 148 145 128 130 154 149 145 77 107 92 79 68 53 52 63 68 57
153 141 135 129 119 114 110 111 111 112 123 133 139 146 146 147 140 148 146 140 143 143 130 113 125 167 169 169 103 32 78 76 65 65 73 71 71 72
142 136 129 122 116 112 110 112 113 111 111 117 123 124 123 126 136 147 132 138 138 116 95 91 122 133 145 139 118 90 77 93 85 79 78 76 73 27
137 135 128 121 115 111 111 116 118 116 111 114 112 116 114 119 126 126 125 106 101 111 109 109 96 48 94 88 90 80 68 -3 15 70 86 70 63 55
131 130 118 118 113 115 116 119 117 109 110 107 104 102 100 106 110 104 111 110 105 106 110 91 81 72 73 83 78 60 56 58 56 30 11 24 82 104
125 120 114 114 119 122 122 120 116 105 103 102 97 90 87 96 85 91 92 88 83 70 61 47 64 73 73 77 52 59 43 55 68 64 69 33 23 18
Wind_Speed
33 34 35 37 38 40 41 44 49 55 54 48 48 44 44 45 47 49 51 53 52 53 53 53 53 53 53 54 54 54 54 54 55 56 57 57 58 59
33 33 35 36 37 38 39 42 44 49 54 46 47 43 44 46 48 51 53 54 54 55 55 55 55 55 55 56 56 54 53 53 53 56 58 60 61 62
30 32 34 35 37 39 40 41 44 46 50 47 45 44 46 49 51 53 54 54 54 55 56 56 56 57 57 57 55 55 54 55 57 59 61 63 64 64
33 34 37 38 40 41 42 43 45 46 50 52 48 49 51 53 56 58 57 56 57 58 60 60 60 61 60 58 59 59 60 59 62 65 67 67 67 68
36 38 40 41 43 44 44 45 46 47 48 51 53 51 53 54 57 57 58 58 58 60 61 60 61 60 60 61 62 62 63 65 68 70 71 71 71 71
34 35 37 39 40 42 43 45 46 48 49 53 55 56 54 53 57 60 61 58 62 60 59 58 58 60 62 62 63 64 66 67 69 71 73 74 74 74
33 34 36 37 39 41 43 45 46 50 52 55 58 59 60 60 62 59 65 63 62 60 60 58 59 62 61 62 62 64 64 66 68 70 72 73 73 75
36 36 36 37 40 43 45 46 47 52 55 57 60 62 63 62 62 64 64 66 69 54 60 64 63 65 63 60 60 64 67 70 71 72 73 73 75 76
37 39 39 39 42 44 46 48 50 51 52 56 62 63 65 63 63 64 65 68 71 67 65 72 62 66 61 62 65 67 68 71 73 74 75 75 75 76
40 42 44 46 45 48 53 55 56 55 55 56 61 62 62 61 63 65 69 71 69 66 62 73 68 68 66 68 66 69 70 70 71 70 71 76 80 82
43 44 47 50 52 54 57 60 63 63 59 61 64 66 66 64 63 66 69 73 77 74 64 69 69 73 72 70 68 63 65 67 69 76 81 81 82 83
47 49 50 53 56 57 59 61 66 68 68 69 68 67 66 67 67 69 70 74 74 74 62 69 73 70 75 67 64 61 69 73 76 79 80 80 81 81
49 51 52 52 55 58 60 63 66 68 69 70 70 68 66 65 65 65 66 70 74 77 70 70 71 71 72 76 74 72 75 76 75 75 77 78 78 78
50 52 54 56 59 61 61 62 65 67 65 64 65 64 63 64 64 63 63 63 64 69 66 63 65 64 72 75 79 71 73 74 75 76 75 75 76 77
51 53 55 58 59 61 60 62 65 64 66 67 68 66 63 65 66 67 66 65 67 68 64 64 65 64 67 72 76 75 78 74 74 76 74 73 75 76
48 50 50 54 58 59 60 60 59 60 63 67 70 71 71 70 69 66 68 68 69 67 61 62 64 64 69 70 74 77 76 77 75 77 77 77 77 75
48 51 52 53 56 58 59 59 61 62 64 66 68 69 70 71 71 71 72 74 78 77 74 67 65 66 68 71 79 78 79 79 77 79 78 80 77 75
51 51 53 54 57 59 62 65 65 67 67 68 70 72 74 74 75 73 72 73 79 78 78 72 70 68 69 71 68 77 76 77 77 75 75 81 84 78
46 49 53 57 60 62 65 66 68 67 68 69 71 72 73 73 75 77 77 78 78 77 75 72 72 69 77 84 71 62 74 75 77 79 78 79 84 84
47 52 56 58 60 63 64 65 67 68 68 69 69 69 70 74 76 77 77 78 79 79 77 72 68 68 74 80 82 77 67 75 77 83 85 81 81 84
49 51 54 57 60 61 62 63 64 65 65 67 69 69 70 71 73 74 75 78 79 78 78 74 69 65 66 69 80 83 76 68 70 77 79 82 86 87
48 51 54 56 58 59 60 60 62 63 65 65 66 66 66 66 68 70 69 70 68 68 69 67 65 64 67 72 83 86 85 76 71 74 74 76 81 87
48 51 54 55 56 56 57 58 60 61 61 61 60 59 58 59 58 58 60 60 62 63 63 66 66 64 67 69 75 79 79 78 75 74 72 64 69 75
Wind_Direction
292 294 294 296 297 295 293 289 287 283 285 287 290 293 296 298 301 302 303 304 306 306 305 305 305 305 305 304 304 304 305 306 306 306 305 305 304 304
294 295 296 297 299 299 298 296 294 290 287 292 292 293 296 298 300 301 302 302 303 303 303 302 302 302 302 302 302 304 305 307 307 307 307 305 304 303
297 297 299 300 299 299 300 300 298 296 290 293 296 296 296 297 299 301 302 302 302 303 303 303 302 302 301 301 303 302 303 304 305 306 305 304 303 302
295 296 296 298 299 299 299 299 299 299 294 290 294 295 295 298 299 299 300 301 301 302 302 301 300 300 300 300 301 301 300 301 301 301 302 301 301 300
294 294 294 295 295 296 297 297 298 298 298 294 293 296 297 298 298 299 299 300 300 301 300 300 300 300 300 299 299 299 299 298 298 298 299 299 299 299
302 303 303 302 301 301 301 301 301 300 299 295 295 295 298 300 300 299 298 300 300 301 301 301 301 300 299 299 299 298 298 298 298 298 298 298 297 297
303 304 305 306 305 305 304 304 303 300 299 298 296 296 296 297 296 299 298 300 301 301 300 300 300 300 300 299 299 299 298 299 299 299 299 299 298 297
301 306 309 309 308 306 306 305 303 300 299 298 298 296 297 297 298 298 298 298 298 303 301 299 300 299 300 300 301 299 299 298 298 298 298 298 297 297
303 305 307 309 308 308 307 306 304 303 302 300 297 297 297 298 298 298 297 297 296 299 300 297 300 299 300 300 300 299 299 298 298 298 297 297 297 297
305 306 305 305 307 306 304 303 303 303 303 302 298 299 299 300 298 298 298 298 299 299 298 295 299 297 299 299 300 299 299 298 298 298 298 297 297 296
305 306 305 304 304 304 302 301 301 301 303 302 299 298 297 297 297 297 296 295 294 295 296 295 297 297 298 298 300 300 299 300 299 298 297 297 296 295
303 303 303 303 303 303 302 301 300 301 302 301 300 299 299 297 295 293 294 294 294 295 296 294 296 298 297 298 299 300 300 300 298 298 297 297 297 296
304 305 306 306 305 305 303 302 301 302 301 301 300 300 299 298 298 296 294 292 292 291 294 295 294 295 294 295 297 299 300 300 300 300 299 298 297 296
306 307 307 307 306 305 305 305 304 303 304 303 301 300 300 300 300 300 298 296 295 294 295 295 295 293 295 295 296 300 301 301 301 300 299 300 299 298
307 307 307 308 308 307 306 306 306 304 302 302 301 302 303 302 302 301 299 297 295 294 294 292 292 292 294 294 296 299 301 302 302 301 300 300 299 300
310 310 310 310 309 308 309 309 308 307 305 303 301 301 301 300 300 301 299 298 296 295 293 292 291 290 291 293 295 296 299 299 301 301 300 299 300 300
314 312 311 311 311 310 310 310 310 309 307 305 304 303 302 302 300 300 297 295 293 292 293 293 292 289 290 291 292 295 296 297 299 299 300 298 299 299
313 313 313 313 312 311 310 309 309 308 307 306 305 303 302 301 300 299 298 296 294 293 292 292 291 291 290 290 289 293 295 297 299 299 299 298 298 300
315 315 314 313 312 312 311 310 309 309 309 307 305 304 303 301 300 298 297 295 293 293 292 292 290 287 287 287 293 293 294 297 298 298 298 297 297 298
315 314 313 313 313 313 312 311 311 311 309 308 307 306 305 301 299 298 297 296 294 293 291 290 288 286 286 288 291 294 296 295 296 296 296 298 298 298
315 314 315 315 315 315 314 314 313 312 312 311 309 307 305 304 302 301 299 297 294 294 289 288 288 290 291 294 291 292 296 295 294 295 298 297 297 299
315 315 316 316 316 316 316 316 315 314 313 312 311 310 308 306 303 302 301 300 298 296 294 295 295 294 292 291 291 292 294 298 298 296 295 294 295 296
315 315 316 316 317 317 317 316 315 315 314 313 313 312 311 309 308 305 304 302 300 298 297 295 294 294 293 293 294 295 296 297 299 300 299 301 298 297